www.pogodaiklimat.ru

Погода и климат >> Архив погоды >> Индия >> Лакшадвип >> Остров Амини


ПОГОДА на Острове Амини

  • Прогноз погоды на Острове Амини
  • Монитор погоды на Острове Амини

АРХИВ ПОГОДЫ на Острове Амини

Время (UTC), дата Ветер
(напр.,м/с)
 
Видим.   Явления Облачность Т
(С)
Тd
(С)
f
(%)
Тe
(С)
Тes
(С)
Комфортность P
(гПа)
Po
(гПа)
Тmin
(С)
Tmax
(С)
R
(мм)
R24
(мм)
S
(см)
06 17.02 С 4 10 км 6/5 600 м
[Sc Ci fib]
+32.2 +24.8 65 +45 +51 опасность
перегрева
1014.9 1014.6
09 17.02 СВ 2 10 км 5/5 600 м
[Sc]
+33.0 +25.1 63 +47 +55 опасность
перегрева
1012.1 1011.8
12 17.02 СВ 2 10 км 8/5 600 м
[Sc Ci fib]
+31.0 +23.8 66 +43 +43 опасность
перегрева
1010.6 1010.3 +33.7
15 17.02 нст 1 4000 м 4/4 600 м
[Sc]
+27.2 +23.1 78 +36 +36 очень
душно
1011.6 1011.3
18 17.02 С 2 4000 м 8/5 600 м
[Sc Ci fib]
+26.4 +22.9 81 +35 +35 очень
душно
1012.3 1012.0
21 17.02 нст 2 4000 м 3/3 600 м
[Sc]
+26.2 +23.7 86 +36 +36 очень
душно
1010.8 1010.5
00 18.02 СЗ 5 4000 м 4/4 600 м
[Sc]
+26.0 +22.8 83 +35 +35 очень
душно
1010.2 1009.9
03 18.02 СЗ 5 10 км 8/6 600 м
[Sc Ci fib]
+26.6 +23.1 81 +36 +36 очень
душно
1012.5 1012.2 +23.3 +33.7
06 18.02 СЗ 5 10 км 8/5 600 м
[Sc Ci fib]
+31.4 +23.0 61 +42 +45 опасность
перегрева
1013.0 1012.7
09 18.02 Ю 1 10 км 6/4 600 м
[Sc Ci fib]
+31.8 +23.1 60 +42 +52 опасность
перегрева
1010.6 1010.3
12 18.02 нст 1 10 км 8/5 600 м
[Sc Ci fib]
+31.0 +22.9 62 +41 +42 опасность
перегрева
1008.5 1008.2 +32.6
15 18.02 нст 1 4000 м 6/5 600 м
[Sc Ci fib]
+26.8 +21.7 74 +34 +34 очень
душно
1009.9 1009.6
18 18.02 штиль 0 4000 м 8/5 600 м
[Sc Ci fib]
+24.8 +21.5 82 +32 +32 очень
душно
1010.5 1010.2
21 18.02 штиль 0 4000 м 5/5 600 м
[Sc]
+23.6 +21.5 88 +30 +30 очень
душно
1009.6 1009.3
00 19.02 штиль 0 4000 м 4/4 600 м
[Sc]
+23.4 +21.9 91 +32 +32 очень
душно
1008.8 1008.5
03 19.02 нст 2 10 км 5/3 600 м
[Sc Ac trans]
+25.0 +22.6 87 +33 +35 очень
душно
1011.4 1011.1 +21.0 +32.6
06 19.02 штиль 0 10 км 9/6 600 м
[Sc Ci fib]
+29.0 +22.5 68 +38 +46 очень
душно
1013.1 1012.8
09 19.02 З 1 10 км 4/4 600 м
[Sc]
+31.6 +23.2 61 +42 +52 опасность
перегрева
1010.6 1010.3
12 19.02 штиль 0 10 км 8/5 600 м
[Sc Ci fib]
+31.0 +22.9 62 +41 +42 опасность
перегрева
1009.5 1009.2 +32.4
15 19.02 штиль 0 4000 м 3/3 600 м
[Sc]
+26.0 +22.4 81 +34 +34 очень
душно
1011.9 1011.6
18 19.02 штиль 0 4000 м 6/5 600 м
[Sc Ci fib]
+26.0 +23.4 86 +35 +35 очень
душно
1012.6 1012.3
21 19.02 нст 1 4000 м 1/1 600 м
[Sc]
+26.0 +23.4 86 +35 +35 очень
душно
1011.2 1010.9
00 20.02 штиль 0 4000 м 3/3 600 м
[Sc]
+25.6 +23.3 87 +34 +34 очень
душно
1010.7 1010.4
03 20.02 штиль 0 10 км 5/4 600 м
[Sc Ci fib]
+25.8 +24.1 90 +36 +39 очень
душно
1013.8 1013.5 +22.4 +32.4
06 20.02 штиль 0 10 км 6/5 600 м
[Sc Ci fib]
+31.4 +24.6 67 +44 +55 опасность
перегрева
1014.5 1014.2
09 20.02 штиль 0 10 км 4/4 600 м
[Sc]
+31.4 +25.2 70 +45 +58 опасность
перегрева
1011.4 1011.1
12 20.02 штиль 0 10 км 5/5 600 м
[Sc]
+31.8 +24.4 65 +44 +45 опасность
перегрева
1010.5 1010.2 +33.4
15 20.02 штиль 0 4000 м 5/4 600 м
[Sc Ac trans]
+28.0 +24.6 82 +40 +40 очень
душно
1012.6 1012.3
18 20.02 штиль 0 4000 м 8/5 600 м
[Sc Ci fib]
+27.4 +24.5 84 +39 +39 очень
душно
1014.6 1014.3
21 20.02 штиль 0 4000 м 6/5 900 м
[Sc Ci fib]
+27.2 +24.6 86 +39 +39 очень
душно
1013.7 1013.4
00 21.02 СВ 1 4000 м 5/5 600 м
[Sc]
+27.0 +24.1 84 +37 +37 очень
душно
1013.6 1013.3
03 21.02 штиль 0 10 км 4/3 600 м
[Sc Ci fib]
+27.6 +24.4 83 +39 +42 очень
душно
1016.0 1015.7 +24.2 +33.4
06 21.02 С 3 10 км 5/5 600 м
[Sc]
+32.6 +25.6 67 +48 +55 опасность
перегрева
1016.6 1016.3
09 21.02 С 2 10 км 5/5 600 м
[Sc]
+34.0 +25.6 62 +49 +56 опасность
перегрева
1013.6 1013.3
12 21.02 штиль 0 10 км 5/5 600 м
[Sc]
+32.2 +26.1 70 +48 +49 опасность
перегрева
1012.2 1011.9 +34.5
15 21.02 штиль 0 4000 м 3/3 600 м
[Sc]
+28.4 +25.6 85 +42 +42 опасность
перегрева
1013.4 1013.1
18 21.02 нст 2 4000 м 8/5 600 м
[Sc Ci fib]
+28.0 +25.2 85 +41 +41 опасность
перегрева
1013.7 1013.4
21 21.02 штиль 0 4000 м 4/4 600 м
[Sc]
+27.0 +25.0 89 +39 +39 очень
душно
1013.3 1013.0
00 22.02 С 4 4000 м 4/4 600 м
[Sc]
+26.2 +25.3 95 +38 +38 очень
душно
1012.3 1012.0
03 22.02 штиль 0 4000 м 4/4 600 м
[Sc]
+28.0 +23.0 74 +37 +40 очень
душно
1013.7 1013.4 +24.6 +34.5
06 22.02 штиль 0 10 км 5/5 600 м
[Sc]
+32.0 +25.5 69 +47 +59 опасность
перегрева
1013.8 1013.5
09 22.02 СВ 3 10 км 4/3 600 м
[Sc Ci fib]
+32.6 +25.6 67 +48 +56 опасность
перегрева
1010.3 1010.0
12 22.02 нст 1 10 км 8/5 600 м
[Sc Ci fib]
+31.0 +25.7 73 +46 +46 опасность
перегрева
1008.9 1008.6 +33.7
15 22.02 штиль 0 4000 м 4/4 600 м
[Sc]
+27.6 +24.7 84 +39 +39 очень
душно
1011.2 1010.9
18 22.02 штиль 0 4000 м 5/5 600 м
[Sc]
+26.2 +24.5 90 +37 +37 очень
душно
1012.1 1011.8
21 22.02 СВ 2 4000 м 5/5 600 м
[Sc]
+26.2 +24.5 90 +37 +37 очень
душно
1011.1 1010.8
00 23.02 штиль 0 4000 м 4/4 600 м
[Sc]
+25.6 +24.1 91 +35 +35 очень
душно
1010.1 1009.8
03 23.02 штиль 0 10 км 3/3 600 м
[Sc]
+26.4 +25.5 95 +39 +42 очень
душно
1011.2 1010.9 +22.8 +33.7
06 23.02 нст 1 10 км 6/5 600 м
[Sc Ci fib]
+32.4 +22.8 57 +42 +52 опасность
перегрева
1012.6 1012.3
09 23.02 СВ 2 10 км 3/3 600 м
[Sc]
+32.4 +26.0 69 +48 +59 опасность
перегрева
1010.1 1009.8
12 23.02 З 2 10 км 5/5 600 м
[Sc]
+31.4 +25.2 70 +45 +46 опасность
перегрева
1008.4 1008.1 +34.0
15 23.02 штиль 0 4000 м 4/4 600 м
[Sc]
+28.4 +24.4 79 +40 +40 очень
душно
1009.9 1009.6
18 23.02 штиль 0 4000 м 5/5 600 м
[Sc]
+26.4 +23.8 86 +36 +36 очень
душно
1011.2 1010.9
21 23.02 штиль 0 4000 м 5/5 600 м
[Sc]
+26.2 +23.9 87 +36 +36 очень
душно
1008.6 1008.3
00 24.02 штиль 0 4000 м 5/5 600 м
[Sc]
+26.2 +23.9 87 +36 +36 очень
душно
1009.4 1009.1
03 24.02 штиль 0 10 км 6/5 600 м
[Sc Ci fib]
+26.6 +24.9 90 +38 +40 очень
душно
1011.6 1011.3 +23.3 +34.0

 

Местоположение метеостанции Остров Амини (Лакшадвип, Индия): широта 11.12 долгота 72.73 высота над уровнем моря 3 м.

В архиве по умолчанию представлена погода на Острове Амини за последнюю неделю. Архивные данные за месяц целиком и за предыдущие месяцы, начиная с января 2011 года, Вы можете получить, выбрав интересующий диапазон дат из раскрывающегося списка и нажав кнопку "Ввод!".


*Определитесь, кто Вы:
робот инопланетянин человек

Внимание! Время в таблицах - всемирное. Для получения местного времени необходимо прибавить поправку, которая равна 5.5 ч.

Смотрите также архив погоды в соседних городах и на ближайших метеорологических станциях:

Погода на Агати (Лакшадвип, Индия) (68 км)
Погода в Каннаноре (Керала, Индия) (294 км)
Погода в Мангалоре (Карнатака, Индия) (306 км)
Погода в Мангалор аэропорт (Карнатака, Индия) (308 км)
Погода на Миникое (Лакшадвип, Индия) (317 км)
Погода в Кожикоде (Керала, Индия) (333 км)
Погода в Карипере (Керала, Индия) (351 км)
Погода в Мадикери (Карнатака, Индия) (357 км)
Погода на Агамбе (Карнатака, Индия) (368 км)
Погода в Ширали (Карнатака, Индия) (382 км)

Пояснения к столбцам:

Ветер - указаны скорость ветра в м/с - средняя за 10 мин, порывы в срок и между сроками (в фигурных скобках) и направление, откуда дует ветер: С - северный, СВ - северо-восточный, В - восточный, ЮВ - юго-восточный, Ю - южный, ЮЗ - юго-западный, З - западный, СЗ - северо-западный.
Видимость - горизонтальная дальность видимости в метрах или километрах. При видимости от 1 до 10 км при отсутствии осадков обычно наблюдается дымка, при ухудшении видимости до 1 км и менее - туман. В сухую погоду видимость может ухудшаться дымом, пылью или мглою.
Явления - указаны атмосферные явления, наблюдавшиеся в срок или в последний час перед сроком; фигурными скобками обозначены явления, наблюдавшиеся между сроками (за 1-3 часа до срока); квадратными скобками обозначены град или гололедные отложения с указанием их диаметра в мм.
Облачность - указаны через наклонную черту общая и нижняя облачность в баллах и высота нижней границы облаков в метрах; квадратными скобками обозначены формы облаков: Ci - перистые, Cs - перисто-слоистые, Cc - перисто-кучевые, Ac - высококучевые, As - высокослоистые, Sc - слоисто-кучевые, Ns - слоисто-дождевые, Cu - кучевые, Cb - кучево-дождевые. Подробнее классификацию облаков см. в Атласе облаков (PDF).
T - Температура воздуха - температура, измеренная на высоте 2 м над землей.
Td - Температура точки росы - температура, при понижении до которой содержащийся в воздухе водяной пар достигнет насыщения.
f - Относительная влажность воздуха - влажноcть воздуха, измеренная на высоте 2 м над землей.
Te - Эффективная температура - температура, которую ощущает одетый по сезону человек в тени. Характеристика душности погоды. При расчете учитывается влияние влажности воздуха и скорости ветра на теплоощущения человека.
Tes - Эффективная температура на солнце - температура, которую ощущает человек, с поправкой на солнечный нагрев. Характеристика знойности погоды. Зависит от высоты солнца над горизонтом, облачности и скорости ветра. Ночью, в пасмурную погоду, а также при ветре 12 м/с и более поправка равна нулю.
P - Атмосферное давление - приведенное к уровню моря атмосферное давление.
Po - Атмосферное давление - измеренное на уровне метеостанции атмосферное давление.
Tmin - Минимальная температура - минимум температуры воздуха на высоте 2 м над землей.
Tmax - Максимальная температура - максимум температуры воздуха на высоте 2 м над землей.
R - Количество осадков - Количество выпавших осадков за период времени, мм. При наведении курсора мыши на число - период времени, за который выпало указанное количество осадков.
R24 - Количество осадков - Количество выпавших осадков за 24 часа, мм.
S - Снежный покров - Высота снежного покрова, см. При наведении курсора мыши на число - состояние снежного покрова и степень покрытия местности в баллах.